This is the latest recevied weather packets stored in our database for station/object DJ2RF. If no packets are shown the sender has not sent any weather packets the latest 10 day(s).
| Time | Temp. | Humidity | Pressure | Rain* | Wind** | Luminosity | Snow |
|---|---|---|---|---|---|---|---|
| 1778014589 | 13.89° C | 80% | 1010.6 hPa | 0 mm | - | - | - |
| 1778013524 | 13.89° C | 80% | 1010.4 hPa | 0 mm | - | - | - |
| 1778012942 | 13.33° C | 80% | 1010.3 hPa | 0 mm | - | - | - |
| 1778011918 | 13.33° C | 80% | 1010 hPa | 0 mm | - | - | - |
| 1778011382 | 13.89° C | 79% | 1009.9 hPa | 0 mm | - | - | - |
| 1778009907 | 14.44° C | 78% | 1009.6 hPa | 0 mm | - | - | - |
| 1778009316 | 14.44° C | 78% | 1009.4 hPa | 0 mm | - | - | - |
| 1778008729 | 14.44° C | 78% | 1009.4 hPa | 0 mm | - | - | - |
| 1778008207 | 14.44° C | 78% | 1009.4 hPa | 0 mm | - | - | - |
| 1778006021 | 15° C | 76% | 1008.6 hPa | 0 mm | - | - | - |
| 1778005467 | 15.56° C | 75% | 1008.8 hPa | 0 mm | - | - | - |
| 1778004896 | 15.56° C | 76% | 1008.8 hPa | 0 mm | - | - | - |
| 1778003757 | 15.56° C | 76% | 1008.7 hPa | 0 mm | - | - | - |
| 1778003232 | 16.11° C | 75% | 1008.8 hPa | 0 mm | - | - | - |
| 1778002683 | 16.11° C | 75% | 1008.5 hPa | 0 mm | - | - | - |
| 1778002198 | 16.11° C | 74% | 1008.6 hPa | 0 mm | - | - | - |
| 1778001707 | 16.11° C | 74% | 1008.6 hPa | 0 mm | - | - | - |
| 1778001200 | 16.67° C | 72% | 1008.5 hPa | 0 mm | - | - | - |
| 1778000649 | 16.67° C | 73% | 1008.6 hPa | 0 mm | - | - | - |
| 1777999065 | 16.67° C | 72% | 1008.5 hPa | 0 mm | - | - | - |
| 1777998563 | 16.67° C | 72% | 1008.7 hPa | 0 mm | - | - | - |
| 1777997992 | 16.67° C | 71% | 1008.8 hPa | 0 mm | - | - | - |
| 1777997404 | 16.67° C | 71% | 1008.6 hPa | 0 mm | - | - | - |
| 1777995245 | 17.22° C | 69% | 1008.5 hPa | 0 mm | - | - | - |
| 1777994682 | 17.22° C | 70% | 1008.5 hPa | 0 mm | - | - | - |
* Rain latest hour (hover to see other rain measurements)
** Current wind speed in m/s (hover to see current wind gust speed)